Total_Precipitation_Accumulation
0.04 0.09 0.15 0.17 0.17 0.15 0.12 0.11 0.16 0.20 0.38 0.42 0.54 0.71 0.87 0.89 0.80 0.73 0.80 0.82 0.83 0.91 1.08 1.22 1.38 1.42 1.39 1.41 1.48 1.61 1.71 1.78 1.96 2.13 2.16 2.06 2.03 2.11 2.15 2.19 2.12 2.28 2.30 2.33
0.05 0.08 0.14 0.16 0.17 0.13 0.09 0.09 0.13 0.19 0.31 0.39 0.54 0.65 0.73 0.71 0.70 0.80 0.85 0.83 0.78 0.88 1.09 1.16 1.20 1.29 1.32 1.37 1.44 1.50 1.58 1.74 1.96 2.16 2.27 2.25 2.29 2.44 2.47 2.41 2.53 2.66 2.63 2.62
0.08 0.11 0.13 0.22 0.18 0.14 0.14 0.13 0.16 0.25 0.31 0.37 0.50 0.65 0.77 0.79 0.84 0.88 0.89 0.86 0.84 0.84 0.96 1.18 1.13 1.14 1.27 1.37 1.51 1.64 1.88 2.07 2.16 2.29 2.44 2.45 2.41 2.45 2.49 2.54 2.55 2.63 2.65 2.70
0.14 0.17 0.25 0.24 0.20 0.19 0.22 0.27 0.28 0.31 0.38 0.46 0.56 0.70 0.82 0.87 0.86 0.97 1.07 1.14 1.17 1.24 1.24 1.33 1.28 1.29 1.38 1.51 1.67 1.74 1.83 2.00 2.14 2.32 2.45 2.54 2.63 2.63 2.71 2.82 2.85 2.86 2.83 2.82
0.23 0.25 0.30 0.30 0.29 0.32 0.37 0.50 0.54 0.60 0.65 0.66 0.70 0.74 0.88 1.00 1.08 1.18 1.14 1.21 1.33 1.39 1.42 1.43 1.48 1.61 1.77 1.81 1.96 2.12 2.23 2.39 2.48 2.52 2.63 2.68 2.72 2.86 2.99 3.10 3.09 3.10 3.07 3.02
0.34 0.42 0.50 0.50 0.47 0.43 0.52 0.86 0.77 0.84 0.95 0.95 1.01 1.24 1.31 1.28 1.27 1.30 1.28 1.33 1.42 1.43 1.48 1.68 1.74 1.81 1.97 2.17 2.31 2.50 2.68 2.79 2.86 2.92 2.93 2.88 2.88 2.98 3.05 3.11 3.11 3.13 3.03 3.05
0.47 0.49 0.54 0.54 0.53 0.52 0.92 1.29 1.23 1.25 1.29 1.22 1.35 1.43 1.31 1.21 1.32 1.37 1.44 1.49 1.51 1.54 1.62 1.76 1.84 1.92 2.11 2.41 2.67 2.87 2.92 2.97 3.01 3.09 3.21 3.31 3.34 3.15 2.99 2.99 3.07 3.16 3.13 3.16
0.72 0.87 0.94 0.66 0.73 1.07 1.33 1.28 1.52 1.41 1.28 1.30 1.30 1.25 1.20 1.21 1.36 1.53 1.65 1.69 1.71 1.74 1.78 1.84 1.98 2.13 2.26 2.51 2.64 2.81 2.86 2.97 3.04 3.05 2.97 2.97 3.22 3.26 3.21 3.11 3.02 3.04 3.12 3.05
1.06 1.18 1.06 0.89 0.95 1.20 1.24 1.26 1.41 1.42 1.23 1.19 1.20 1.15 1.16 1.22 1.33 1.47 1.58 1.65 1.65 1.71 1.86 1.87 1.91 2.10 2.38 2.46 2.51 2.54 2.67 2.79 2.97 3.04 3.08 3.02 2.99 3.05 3.05 2.99 2.85 2.67 2.72 2.76
1.39 1.42 1.28 1.11 1.00 1.07 1.14 1.21 1.27 1.40 1.41 1.30 1.24 1.18 1.23 1.25 1.29 1.48 1.61 1.64 1.70 1.66 1.69 1.80 1.91 2.09 2.19 2.23 2.35 2.57 2.67 2.69 2.75 2.80 2.84 2.89 2.96 2.90 2.86 2.85 2.80 2.66 2.67 2.71
1.91 1.96 1.80 1.63 1.39 1.28 1.25 1.27 1.36 1.48 1.54 1.60 1.54 1.45 1.46 1.39 1.38 1.50 1.58 1.56 1.65 1.73 1.75 1.83 1.90 2.05 2.20 2.25 2.29 2.42 2.44 2.37 2.43 2.57 2.65 2.69 2.80 2.84 2.69 2.60 2.66 2.57 2.64 2.82
2.28 2.11 2.12 1.98 1.62 1.46 1.47 1.56 1.55 1.57 1.61 1.58 1.55 1.53 1.56 1.59 1.50 1.42 1.40 1.52 1.66 1.73 1.80 1.85 1.88 1.97 2.02 2.07 2.20 2.34 2.40 2.40 2.38 2.44 2.57 2.64 2.60 2.65 2.67 2.43 2.40 2.26 2.29 2.36
1.92 1.91 1.98 1.88 1.72 1.61 1.64 1.62 1.67 1.72 1.69 1.60 1.53 1.51 1.52 1.58 1.62 1.52 1.48 1.52 1.66 1.70 1.72 1.77 1.78 1.82 1.84 1.90 2.13 2.39 2.50 2.59 2.53 2.35 2.30 2.35 2.37 2.35 2.36 2.26 2.01 1.86 1.82 1.78
1.94 1.97 2.05 1.95 1.92 1.76 1.73 1.63 1.56 1.52 1.46 1.47 1.50 1.50 1.47 1.47 1.57 1.66 1.64 1.66 1.80 1.85 1.72 1.62 1.62 1.68 1.73 1.77 1.90 2.06 2.15 2.23 2.21 2.09 2.03 2.00 2.00 1.98 1.88 1.91 1.86 1.71 1.64 1.58
1.79 1.79 1.90 1.82 1.79 1.79 1.79 1.74 1.64 1.53 1.42 1.48 1.53 1.52 1.56 1.63 1.71 1.80 1.86 1.92 1.98 1.95 1.79 1.62 1.56 1.60 1.65 1.73 1.83 1.88 1.95 1.97 1.91 1.91 1.97 2.01 2.08 2.08 1.96 1.88 1.92 1.89 1.76 1.58
1.62 1.68 1.69 1.76 1.90 1.80 1.73 1.71 1.72 1.67 1.53 1.51 1.55 1.53 1.52 1.61 1.74 1.77 1.81 1.96 2.12 2.12 1.96 1.83 1.71 1.63 1.58 1.71 1.86 1.88 1.85 2.00 1.94 1.82 1.84 2.01 2.15 2.13 2.13 2.17 2.12 2.17 2.14 1.84
1.73 1.76 1.68 1.75 1.88 1.88 1.82 1.74 1.75 1.71 1.67 1.66 1.62 1.51 1.54 1.64 1.76 1.85 1.75 1.71 1.82 1.90 1.89 1.82 1.71 1.59 1.59 1.64 1.72 1.83 1.80 1.84 1.88 1.79 1.82 1.94 2.06 2.15 2.14 2.15 2.21 2.22 2.19 1.99
1.60 1.51 1.49 1.56 1.61 1.69 1.75 1.77 1.79 1.70 1.63 1.61 1.60 1.57 1.59 1.68 1.81 1.86 1.78 1.68 1.60 1.58 1.64 1.63 1.54 1.49 1.52 1.55 1.62 1.77 1.79 1.79 1.82 1.86 1.89 1.94 1.98 2.11 2.27 2.29 2.27 2.31 2.17 2.07
1.57 1.46 1.40 1.40 1.38 1.43 1.55 1.66 1.70 1.64 1.55 1.53 1.57 1.58 1.55 1.54 1.65 1.76 1.74 1.81 1.83 1.72 1.61 1.49 1.44 1.36 1.43 1.48 1.49 1.55 1.59 1.66 1.79 1.84 1.86 1.88 1.93 1.99 2.07 2.12 2.17 2.20 2.02 1.96
1.70 1.62 1.47 1.40 1.39 1.36 1.42 1.45 1.52 1.56 1.48 1.42 1.45 1.48 1.49 1.50 1.60 1.80 1.90 1.96 2.02 1.89 1.73 1.56 1.29 1.20 1.27 1.33 1.30 1.21 1.23 1.31 1.36 1.45 1.56 1.65 1.72 1.83 1.82 1.79 1.84 1.88 1.79 1.76
1.84 1.75 1.62 1.52 1.54 1.46 1.42 1.37 1.40 1.48 1.45 1.47 1.59 1.63 1.56 1.50 1.53 1.77 2.09 2.19 2.03 1.83 1.69 1.64 1.32 1.10 1.01 1.11 1.23 1.20 1.24 1.23 1.22 1.29 1.37 1.46 1.55 1.61 1.68 1.71 1.69 1.65 1.62 1.60
1.90 1.82 1.71 1.60 1.52 1.52 1.47 1.39 1.39 1.44 1.46 1.51 1.50 1.49 1.51 1.46 1.46 1.65 1.84 2.04 1.90 1.75 1.46 1.36 1.24 1.05 1.00 0.98 0.98 1.09 1.19 1.23 1.23 1.27 1.30 1.35 1.43 1.49 1.57 1.58 1.54 1.47 1.45 1.47
1.92 1.80 1.72 1.60 1.52 1.49 1.42 1.40 1.37 1.40 1.43 1.41 1.36 1.42 1.48 1.50 1.46 1.61 1.73 1.55 1.43 1.45 1.31 1.25 1.18 1.04 0.95 0.91 0.94 0.98 1.05 1.12 1.16 1.18 1.19 1.22 1.28 1.34 1.38 1.42 1.42 1.33 1.36 1.39
1.81 1.84 1.88 1.80 1.59 1.47 1.47 1.43 1.39 1.39 1.34 1.35 1.35 1.36 1.38 1.41 1.39 1.34 1.37 1.39 1.38 1.33 1.22 1.22 1.11 0.95 0.85 0.79 0.86 0.95 1.02 1.08 1.09 1.09 1.10 1.15 1.21 1.26 1.34 1.41 1.44 1.37 1.33 1.27
1.73 1.72 1.76 1.78 1.68 1.57 1.49 1.43 1.46 1.50 1.43 1.39 1.34 1.31 1.27 1.28 1.30 1.29 1.27 1.29 1.32 1.24 1.13 1.15 1.09 1.04 0.95 0.93 0.98 1.03 1.07 1.13 1.16 1.15 1.16 1.21 1.25 1.29 1.33 1.38 1.39 1.34 1.30 1.28
1.69 1.64 1.65 1.64 1.56 1.55 1.55 1.53 1.59 1.60 1.52 1.45 1.40 1.34 1.27 1.20 1.23 1.29 1.37 1.34 1.21 1.15 1.06 1.04 1.02 1.04 1.03 1.08 1.15 1.14 1.09 1.11 1.12 1.10 1.15 1.27 1.33 1.35 1.32 1.28 1.28 1.30 1.23 1.18
1.64 1.62 1.64 1.58 1.53 1.50 1.50 1.49 1.54 1.61 1.54 1.44 1.44 1.43 1.40 1.41 1.43 1.43 1.41 1.38 1.28 1.16 1.08 1.04 0.99 0.93 0.96 1.02 1.07 1.12 1.13 1.13 1.13 1.15 1.19 1.24 1.26 1.24 1.18 1.16 1.20 1.22 1.16 1.13